STARLINK-34563, 64708

Orbit data source: Space-Track

STARLINK-34563, 64708 is a payload satellite owned by SpaceX/Seattle (US) in LEO that was launched on Sat, 28 Jun 2025 UTC via an FALCON 9 launch vehicle from the Air Force Western Test Range (AFWTR). Payload-class satellites include a variety of spacecraft equipped with specific instruments for various scientific and technological missions. These include communications satellites like Starlink; space stations such as the ISS; scientific satellites like the Hubble; Earth observation satellites from companies like Planet Labs, Umbra, and HawkEye 360; GPS; miniature CubeSats for education and research; and military/defense satellites.

Loading next visibility...
Identifier
64708, 2025-142N
Orbit
LEO
Country
Flag of USUS
Related business
Manufacturer
SpaceX/Seattle
Mission
Operational Commercial Communications
Bus & Motor
STARLINK V2MO, Unknown motor
Mass
575 kg wet, ~530 kg dry
Launch date (UTC)
2025-06-28 (1 year ago)
Launch vehicle
FALCON 9
Launch site
Air Force Western Test Range (AFWTR)
Object type
Payload
Rocket body
Debris
Shape & HBR
Box + 2 Pan, 17.7 m
Radar Cross Section
36.964 m², Large (>1 m²)

Expand to show TLE details & history
Last TLE update: 6 hours ago

TLE from 6 hours ago
0 STARLINK-34563
1 64708U 25142N   26207.60415443  .00004237  00000-0  36266-3 0  9995
2 64708  70.0026 324.4064 0002718 267.0480  93.0368 14.98335272 60267
Epoch: 2026-07-26T14:29Z
TLE epoch observation values (Epoch: 2026-07-26T14:29:58.942Z)
Latitude
-0.00004°
Longitude
162.61109°
Altitude
574.564 km
Speed
7.574 km/s
True Right ascension
21h 37m 37s
True Declination
0° 00' 00"
Sunlit
Object was in full shadow at epoch
Visualization orbit readout
Latitude
Unknown
Longitude
Unknown
Altitude
Unknown
Speed
Unknown
Apparent Right ascension
Unknown
Apparent Declination
Unknown
Sunlit
N/A
Visualization observer readout
Local Sidereal Time
09:49:22
Azimuth
Unknown
Elevation
Unknown
Doppler factor
Unknown
Orbital elements
Apogee altitude
571.876 km
Perigee altitude
568.099 km
Semi-major axis
6,948.125 km
Eccentricity
0.00027
Inclination
70.0026°
RAAN
324.4064°
Arg. of periapsis
267.048°
True anomaly
93.0679°
Mean anomaly
93.0368°
Eccentric anomaly
93.05235°
Mean motion
3.7475 °/min
Orbital period
96.06 mins
BSTAR
0.00036266
Loading maneuver chart data...
Computing Atmospheric mass density...
Loading historical data...
Loading historical data...
Loading historical data...
Loading historical data...
Loading historical data...
Loading historical data...
Loading historical data...

Documentation

Showing up to 5 results
|